Location: Unspecified
(44.0704°N, 88.6889°W)
Time: 01:54:21
(UTC+02:00)

Transit 2A - Pass Details

Date: 23 June 2019
Orbit: 600 x 959 km, 66.7° (Epoch: 13 October)

Event Time Altitude Azimuth Distance (km) Brightness Sun altitude
Rises 06:49:31 0° 177° (S) 3,592 - -20.8°
Reaches altitude 10° 06:52:20 10° 166° (SSE) 2,671 - -20.9°
Exits shadow 06:56:50 29° 122° (ESE) 1,694 7.4 -21.1°
Maximum altitude 06:57:40 30° 109° (ESE) 1,662 7.4 -21.1°
Drops below altitude 10° 07:02:58 10° 51° (NE) 2,668 9.1 -21.4°
Sets 07:05:47 0° 41° (NE) 3,588 10.0 -21.5°
